Theta_e
283 283 283 282 282 283 282 282 282 282 281 281 280 279 278 278 278 277 277 277 277 277 277 276 276 276 275 275 274 274 273 273 273 273 272 272 271 271 271 271 270 270
283 283 283 283 283 283 283 283 282 282 282 282 281 281 280 278 278 277 277 277 277 277 277 276 276 276 275 275 274 273 273 272 272 273 272 271 271 271 271 271 270 270
283 283 283 282 282 282 282 283 283 282 282 282 282 281 280 279 278 277 277 277 276 277 276 276 276 275 275 275 274 273 273 272 272 272 272 271 271 270 271 271 270 270
283 283 283 283 283 283 283 282 282 282 283 282 282 283 282 280 278 277 277 277 276 276 276 276 276 275 275 274 274 273 273 273 272 272 272 271 271 271 270 270 270 270
283 283 283 283 283 283 283 282 282 282 282 283 283 283 282 280 278 277 277 276 276 276 276 276 276 275 275 274 274 273 273 273 273 272 272 271 271 271 271 271 270 270
283 283 283 283 283 283 282 282 282 282 282 282 282 283 282 281 279 278 277 276 276 276 276 276 275 275 275 274 274 273 273 273 273 272 272 271 271 271 271 271 271 270
283 283 283 283 283 283 282 282 282 283 282 283 283 282 282 281 280 278 277 276 276 276 276 275 275 275 275 274 274 273 273 273 273 272 272 271 271 271 271 271 271 270
283 284 284 283 283 283 282 283 282 282 283 282 282 282 282 281 280 279 278 277 276 276 275 275 275 275 275 274 273 273 273 273 273 272 271 271 271 271 271 271 271 270
284 283 283 283 282 282 282 282 283 283 283 282 282 282 282 281 281 280 278 277 276 276 275 275 275 275 275 274 274 273 273 273 273 272 272 271 271 271 271 271 270 270
283 283 282 282 282 283 282 282 283 282 282 282 282 282 281 281 281 280 278 277 276 276 275 275 275 275 275 274 274 273 273 273 273 272 272 272 271 271 271 271 270 269
282 282 282 282 282 282 282 282 282 282 282 281 281 280 280 280 280 279 278 277 276 276 276 275 275 275 275 274 274 274 273 273 273 272 272 272 272 271 272 271 270 269
282 281 281 281 282 282 282 282 282 281 281 280 280 280 280 280 279 278 278 278 277 277 276 276 276 275 275 275 274 274 274 273 273 273 272 272 272 271 271 271 270 270
281 281 282 282 282 282 282 281 280 280 280 280 279 280 279 278 278 278 278 278 278 277 276 276 276 275 275 274 274 274 273 273 272 272 272 272 271 271 271 271 271 270
281 281 281 281 281 281 280 280 279 279 279 279 278 277 278 278 278 278 277 277 277 276 276 276 275 275 274 274 274 273 273 272 272 272 271 271 271 271 271 271 270 270
279 280 280 279 279 279 278 278 278 277 276 276 276 277 278 277 277 277 276 275 275 275 275 275 274 274 274 273 273 273 272 272 272 272 271 271 270 270 270 270 270 270
276 275 275 275 275 274 274 274 274 274 273 273 274 275 275 275 275 275 275 274 274 273 274 274 273 274 274 275 275 273 272 272 272 272 271 271 270 270 270 270 269 269
274 274 274 273 273 272 272 273 274 273 273 273 273 273 274 274 273 274 273 273 273 273 273 273 273 273 275 277 277 277 273 272 271 271 271 270 270 269 269 269 268 268
274 274 274 273 273 273 272 272 272 272 272 273 272 273 273 272 272 273 272 272 273 273 272 273 273 274 277 277 278 278 276 272 272 271 270 270 270 269 269 268 268 267
273 274 273 273 272 272 273 272 272 272 272 271 271 272 271 271 273 273 272 272 272 272 272 272 272 275 277 278 278 279 279 275 271 271 270 269 269 269 268 267 267 266
274 274 273 271 271 271 272 272 272 272 271 271 271 271 271 271 271 271 271 271 271 271 272 272 272 274 277 278 279 279 279 277 271 270 270 269 268 268 267 267 266 266
272 271 270 270 270 270 270 271 271 270 271 271 270 271 271 270 270 270 271 270 271 271 271 271 270 274 276 278 278 279 279 278 270 270 269 268 267 267 266 266 266 266
270 270 270 269 270 269 269 270 269 269 270 270 269 269 268 269 269 269 269 269 269 269 269 269 269 274 276 277 278 278 278 276 270 269 268 267 266 265 265 265 265 265
270 270 269 269 270 269 269 269 269 269 268 268 267 268 268 268 268 267 268 267 268 268 268 268 267 272 275 276 277 278 277 274 269 268 267 267 266 265 265 265 265 265
269 269 269 269 269 268 268 268 268 267 267 267 267 267 267 267 266 266 267 266 267 267 267 267 266 269 274 276 276 277 276 273 269 267 267 266 266 266 266 265 265 266
268 268 268 267 267 268 267 267 267 267 267 267 266 266 265 266 266 266 266 266 266 266 268 266 265 267 272 274 275 276 275 272 269 266 265 265 266 266 266 266 266 267
267 267 267 266 266 267 267 266 266 266 266 266 266 265 265 265 265 265 264 264 264 264 265 265 265 265 266 272 274 275 275 272 269 267 266 265 264 264 264 264 265 265
Wind_Speed
15 13 15 14 14 14 14 14 14 14 14 13 14 14 14 14 13 15 17 16 16 16 16 15 14 14 13 13 13 12 12 13 12 11 13 13 12 13 13 14 12 11
16 15 14 13 13 13 14 14 15 14 15 14 13 13 12 12 15 15 16 16 16 17 16 15 15 15 14 13 13 13 12 12 14 10 12 15 13 13 14 14 13 10
15 15 16 16 17 17 16 15 14 14 14 15 13 12 13 12 13 14 15 16 16 16 16 16 16 15 15 14 14 14 13 13 14 12 13 15 13 13 12 12 11 13
16 17 16 17 16 16 15 13 13 13 13 13 15 14 12 10 12 15 15 16 16 16 16 16 17 15 15 15 14 13 14 14 13 12 13 11 12 12 12 11 11 11
15 15 14 14 14 15 13 13 15 15 15 16 14 13 12 11 12 14 14 15 16 16 15 17 16 16 15 15 15 14 13 13 13 13 13 13 12 12 12 11 13 13
11 12 13 14 15 14 14 15 16 15 16 15 16 13 12 13 12 13 15 15 15 16 16 16 16 16 15 15 15 15 14 13 13 15 15 15 13 12 11 12 13 14
13 12 14 14 14 14 15 15 15 15 15 15 13 13 13 13 13 13 14 15 16 16 17 16 17 16 15 15 15 15 15 15 14 15 16 14 13 14 13 13 13 13
14 12 12 11 13 14 14 15 14 15 15 13 14 15 12 14 14 13 13 14 15 16 16 16 16 17 16 15 16 16 16 13 14 16 16 15 13 15 14 12 12 12
11 11 11 12 13 13 14 15 15 15 13 13 14 13 12 13 14 13 13 13 14 15 15 16 17 16 16 16 17 17 18 16 15 16 17 16 16 16 15 13 12 13
10 10 11 11 12 13 14 15 14 13 12 13 13 12 12 12 12 12 12 13 14 14 15 16 16 16 15 16 18 17 17 17 16 16 16 16 16 14 14 13 14 13
10 9 10 11 12 12 14 14 13 13 11 12 12 12 12 11 10 10 11 12 13 15 15 15 16 16 17 16 15 15 16 15 15 14 15 15 15 14 12 14 14 14
9 8 9 11 12 11 13 12 12 11 11 10 10 12 11 10 11 10 11 13 13 14 15 16 15 15 16 17 16 15 15 14 14 14 14 14 13 13 13 13 13 13
7 8 9 9 9 10 10 9 9 10 10 11 10 11 11 10 10 11 10 12 13 13 13 14 14 14 14 14 14 14 13 13 13 13 13 12 11 12 12 13 13 12
9 7 7 7 7 7 8 8 8 8 8 8 7 8 9 10 10 11 10 10 11 11 12 11 11 11 11 11 12 12 12 13 13 12 12 12 12 12 12 12 12 12
6 6 5 5 5 6 6 6 6 6 5 5 5 7 7 7 8 8 8 8 7 8 8 8 9 10 9 11 11 11 11 12 12 13 13 12 12 12 11 11 11 11
5 5 5 5 5 4 3 2 1 1 2 3 4 4 4 3 4 4 5 6 6 5 5 6 7 7 8 10 12 11 12 11 11 12 12 12 12 11 11 11 12 11
6 5 5 5 4 4 3 3 2 1 0 1 1 1 1 1 3 4 4 5 5 6 6 7 7 7 11 17 19 19 13 11 12 11 11 12 12 12 12 12 11 11
6 6 5 5 4 4 3 3 3 2 2 2 1 0 0 1 2 4 3 3 4 5 6 7 7 7 15 17 20 21 18 12 11 10 11 11 11 12 11 10 11 10
5 5 5 4 4 4 3 3 3 2 2 1 1 0 0 1 3 2 3 3 4 5 6 6 6 9 16 18 21 23 24 18 10 11 11 11 11 12 11 10 9 9
5 5 4 4 3 4 3 3 3 3 2 1 1 1 1 2 1 3 3 3 5 6 6 6 6 8 16 20 22 24 25 21 11 13 11 11 11 11 10 10 10 10
6 5 4 5 4 4 3 3 3 3 3 2 2 2 3 4 4 4 4 4 4 5 5 6 5 10 16 20 21 24 24 21 9 11 10 9 9 9 10 10 10 10
6 6 5 5 5 4 4 4 4 3 4 3 2 3 2 2 3 2 3 3 3 3 4 5 4 11 16 18 21 22 24 13 9 11 10 10 10 9 9 9 10 10
7 6 6 5 5 5 5 5 4 5 4 2 3 3 3 3 3 2 1 2 3 3 4 3 2 9 15 17 19 22 17 7 7 8 8 9 9 9 9 10 10 11
7 6 6 6 5 5 5 5 4 3 3 2 3 3 3 3 2 1 0 1 2 3 3 4 3 6 13 16 18 20 15 6 5 6 7 8 8 8 8 9 11 17
6 5 5 5 6 6 5 5 4 4 2 1 2 1 2 1 1 1 0 0 1 2 2 3 3 4 10 14 16 17 13 4 4 5 6 6 7 8 9 9 9 13
6 6 6 5 6 6 5 5 3 2 2 1 1 0 1 1 1 2 2 1 1 2 2 2 3 4 4 12 14 16 17 8 2 4 5 6 6 7 7 7 8 9
Wind_Direction
223 221 226 224 228 226 227 224 224 224 223 219 219 218 214 216 205 205 208 207 209 210 209 209 207 207 207 205 204 205 205 205 205 202 203 204 208 204 207 206 205 204
223 222 226 228 232 229 230 226 228 225 228 224 224 222 218 211 208 205 206 207 208 211 208 209 208 207 205 204 203 204 207 203 206 200 203 205 208 206 211 208 209 206
224 224 225 225 227 229 228 228 229 229 231 230 228 223 220 211 208 204 207 206 207 209 208 208 208 207 205 206 203 205 207 204 205 200 202 207 205 207 208 205 208 206
225 224 225 228 230 232 230 231 231 231 233 234 229 227 220 212 205 205 206 204 207 207 207 207 207 206 205 205 202 207 208 208 206 198 204 208 208 206 206 203 206 206
227 228 230 232 233 234 234 231 232 230 231 232 235 230 224 214 205 207 204 205 206 207 205 207 206 206 204 204 203 208 206 208 204 200 204 207 206 202 206 200 204 206
233 231 231 231 233 231 232 231 233 232 233 234 232 229 227 219 213 207 204 204 205 205 205 205 205 206 202 203 202 208 205 205 205 200 206 207 205 202 202 204 204 206
232 228 231 230 233 231 232 235 235 233 234 233 233 231 224 222 218 210 205 205 202 203 204 203 203 204 201 201 203 207 206 206 203 202 206 209 203 205 203 203 205 205
233 232 232 232 232 233 232 236 234 233 232 232 231 231 222 225 221 214 208 204 203 205 204 204 203 203 201 199 203 205 207 204 204 202 205 207 202 205 202 201 201 202
233 233 231 233 232 234 234 234 234 234 231 229 231 230 224 222 222 215 208 203 205 205 203 204 203 202 201 200 204 205 205 204 203 202 203 203 203 204 201 196 197 202
233 233 233 234 234 235 236 235 234 235 231 229 230 227 224 223 220 216 206 204 205 205 203 204 203 203 202 204 204 204 204 205 203 203 204 204 205 202 198 195 198 199
239 236 235 237 237 239 239 238 236 235 230 227 226 226 224 220 219 212 208 204 205 205 204 204 204 202 203 205 205 204 205 204 203 204 205 205 204 202 196 197 199 201
244 245 241 241 243 244 244 241 237 233 229 225 219 223 222 215 213 207 206 208 207 206 205 205 203 203 204 204 203 201 202 204 203 204 205 204 203 201 198 199 200 201
258 252 247 249 250 249 249 245 238 231 225 224 216 216 215 211 210 208 209 208 209 205 206 205 204 203 203 202 201 199 200 200 201 203 203 203 202 200 200 200 201 200
268 268 271 269 267 264 256 248 239 231 225 223 209 210 212 209 204 206 209 205 209 204 206 202 201 201 201 199 198 196 196 199 199 199 200 202 202 202 201 202 201 200
303 298 290 286 279 274 264 255 244 235 226 213 205 210 212 208 203 202 197 202 203 203 199 196 198 201 197 195 192 194 194 198 198 200 201 201 201 201 202 202 202 201
324 337 344 352 360 351 336 315 278 227 192 198 208 210 203 192 187 191 189 195 193 192 189 190 200 200 192 184 188 189 193 196 198 201 201 201 201 201 202 202 203 202
352 345 350 356 345 359 1 11 14 26 87 171 217 186 188 165 156 176 192 191 190 189 193 198 200 200 192 199 198 195 191 196 198 201 199 201 201 200 201 200 202 202
336 336 342 333 353 355 9 11 24 29 29 35 38 38 59 102 166 206 198 194 192 196 201 207 208 199 201 204 205 204 197 195 199 199 198 201 202 201 201 198 199 198
333 339 340 352 354 7 7 21 28 19 17 16 350 2 86 172 228 204 214 198 194 203 213 211 215 205 209 209 212 215 212 201 197 197 199 201 200 201 199 197 192 193
345 353 355 353 355 360 4 357 348 323 338 3 21 20 235 266 254 230 220 208 209 212 220 218 217 210 213 219 221 220 220 214 186 194 198 199 199 197 198 196 192 191
355 359 352 343 349 351 343 331 325 323 326 311 280 252 240 237 234 233 227 218 221 218 223 226 220 213 221 225 226 227 227 223 175 189 192 196 197 194 197 194 194 196
352 341 334 327 321 324 317 302 307 296 285 292 278 279 284 282 287 258 243 230 227 220 222 230 228 221 226 227 231 233 232 226 168 185 192 194 195 193 193 197 195 198
334 326 316 310 304 304 295 292 292 292 290 299 273 271 261 260 250 254 253 222 224 219 215 224 207 228 228 231 233 235 233 221 153 181 192 198 200 194 197 198 202 200
321 320 315 310 309 297 293 295 294 299 285 268 241 259 255 253 246 219 338 175 208 218 209 210 213 234 233 235 237 237 233 211 142 172 183 199 203 202 200 206 207 205
322 328 329 326 319 309 308 301 291 278 292 317 274 250 252 181 152 164 154 125 181 195 207 207 218 247 244 242 246 244 241 230 177 161 179 190 194 206 209 209 210 211
336 342 336 332 325 319 316 302 296 316 315 356 350 112 148 133 158 158 188 216 133 148 232 201 220 248 257 251 252 255 255 254 187 197 226 212 203 202 204 209 208 211